Nassau, Bahamas

11:55 PM EST on February 06, 2016 (GMT -0500)
Nassau International

Weather History for MYNN - May, 2014

Change the Weather History Date:

Friday, May 9, 2014

  Actual Average Record
Temperature  
Mean Temperature 80 °F -  
Max Temperature 87 °F 86 °F 91 °F (2011)
Min Temperature 74 °F 71 °F 66 °F (2005)
Cooling Degree Days 16    
Growing Degree Days 30 (Base 50)    
Moisture  
Dew Point 68 °F    
Average Humidity 65    
Maximum Humidity 83    
Minimum Humidity 48    
Precipitation  
Precipitation 0.00 in 0.20 in - ()
Sea Level Pressure  
Sea Level Pressure 30.16 in    
Wind  
Wind Speed 8 mph ()    
Max Wind Speed 12 mph    
Max Gust Speed -    
Visibility 6.5 miles    
Events      
Averages and records for this station are not official NWS values.
T = Trace of Precipitation, MM = Missing Value Source: Averaged Metar Reports

Daily Weather History Graph

Daily Weather History Graph

Search for Another Location

Airport or City:

Trip Planner

Search our weather history database for the weather conditions in past years. The results will help you decide how hot, cold, wet, or windy it might be!

Date:

Astronomy

May. 09, 2014 Rise Set
Actual Time 6:28 AM EDT 7:44 PM EDT
Civil Twilight 6:04 AM EDT 8:08 PM EDT
Nautical Twilight 5:35 AM EDT 8:37 PM EDT
Astronomical Twilight 5:05 AM EDT 9:07 PM EDT
Moon 3:10 PM EDT (5/9) 2:56 AM EDT (5/9)
Length of Visible Light 14h 04m
Length of Day
13h 15m
Waxing Gibbous, 73% of the Moon is Illuminated
May 9
Waxing Gibbous
May 14
Full
May 21
Last Quarter
May 28
New
Jun 5
First Quarter

Hourly Weather History & Observations

Time (EDT) Temp. Heat Index Dew Point Humidity Pressure Visibility Wind Dir Wind Speed Gust Speed Precip Events Conditions
12:00 AM 77.0 °F - 66.2 °F 69% 30.19 in 6.2 mi East 9.2 mph - N/A   Scattered Clouds
1:00 AM 77.0 °F - 66.2 °F 69% 30.18 in 6.2 mi East 9.2 mph - N/A   Scattered Clouds
2:00 AM 78 °F - 69 °F 66% 30.16 in 8 mi East 9.2 mph - -   Partly Cloudy
2:00 AM 78.8 °F - 68.0 °F 69% 30.16 in 6.2 mi East 9.2 mph - N/A   Scattered Clouds
3:00 AM 77.0 °F - 64.4 °F 65% 30.14 in - East 9.2 mph - N/A   Smoke
4:00 AM 77.0 °F - 66.2 °F 69% 30.14 in - East 6.9 mph - N/A   Smoke
5:00 AM 77 °F - 69 °F 69% 30.14 in 2 mi East 6.9 mph - -   Partly Cloudy
5:00 AM - - - N/A% 30.14 in - East 6.9 mph - N/A   Smoke
6:00 AM 77.0 °F - 66.2 °F 69% 30.14 in 6.2 mi East 6.9 mph - N/A   Partly Cloudy
7:00 AM 77.0 °F - 66.2 °F 69% 30.16 in 6.2 mi East 6.9 mph - N/A   Scattered Clouds
8:00 AM 78 °F - 70 °F 71% 30.18 in 8 mi East 6.9 mph - -   Mostly Cloudy
8:00 AM 78.8 °F - 69.8 °F 74% 30.18 in 6.2 mi East 6.9 mph - N/A   Scattered Clouds
9:00 AM 80.6 °F 83.2 °F 68.0 °F 65% 30.19 in 6.2 mi East 10.4 mph - N/A   Scattered Clouds
10:00 AM 80.6 °F 83.2 °F 68.0 °F 65% 30.19 in 6.2 mi East 10.4 mph - N/A   Scattered Clouds
11:00 AM 83 °F - 71 °F 60% 30.20 in 9 mi ESE 11.5 mph - -   Partly Cloudy
11:00 AM 82.4 °F 87.2 °F 71.6 °F 70% 30.19 in 6.2 mi ESE 11.5 mph - N/A   Scattered Clouds
12:00 PM 82.4 °F 85.4 °F 68.0 °F 62% 30.19 in 6.2 mi SE 11.5 mph - N/A   Scattered Clouds
1:00 PM 84.2 °F 86.6 °F 66.2 °F 55% 30.16 in 6.2 mi ESE 11.5 mph - N/A   Scattered Clouds
2:00 PM 87 °F - 70 °F 48% 30.16 in 9 mi ESE 9.2 mph - -   Partly Cloudy
2:00 PM 87.8 °F 92.6 °F 69.8 °F 55% 30.16 in 6.2 mi ESE 9.2 mph - N/A   Scattered Clouds
3:00 PM 84.2 °F 86.6 °F 66.2 °F 55% 30.14 in 6.2 mi ESE 10.4 mph - N/A   Scattered Clouds
4:00 PM 82.4 °F 85.4 °F 68.0 °F 62% 30.12 in 6.2 mi East 11.5 mph - N/A   Scattered Clouds
5:00 PM 84 °F - 71 °F 56% 30.11 in 9 mi East 11.5 mph - -   Partly Cloudy
5:00 PM 84.2 °F 89.6 °F 71.6 °F 66% 30.11 in 6.2 mi East 11.5 mph - N/A   Scattered Clouds
6:00 PM 80.6 °F 83.9 °F 69.8 °F 70% 30.10 in 6.2 mi East 11.5 mph - N/A   Scattered Clouds
11:00 PM 77.0 °F - 71.6 °F 83% 30.13 in 6.2 mi East 10.4 mph - N/A   Partly Cloudy